Regional Weather Roundup
Issued by NWS Grand Forks, ND

Home | Current Version | Previous Version | Graphics & Text | Print | Product List | Glossary On
Versions: 1 2 3 4 5 6 7 8 9 10 11 12 13 14 15 16 17 18 19 20 21 22 23 24 25 26 27 28 29 30 31 32 33 34 35 36 37 38 39 40 41 42 43 44 45 46 47 48 49 50
000
ASUS43 KFGF 211131
RWRFGF
PRAIRIE TO PINES  WEATHER ROUNDUP
NATIONAL WEATHER SERVICE EASTERN NORTH DAKOTA/GRAND FORKS ND
600 AM CDT SAT APR 21 2018

 **SATELLITE DATA USED TO AUGMENT SKY COVER AT AUTOMATED STATIONS**
 *****  WEATHER ACROSS EASTERN NORTH DAKOTA  *****

CITY           SKY/WX    TMP DP  RH WIND       PRES   REMARKS
GRAND FORKS    MOCLDY    33  33 100 S7        30.34R
GRAND FRKS AFB CLOUDY    35  35  99 S8        30.33R
GRAND FRKS NWS   N/A     35  33  93 S5        30.32S
DEVILS LAKE    FAIR      32  30  92 CALM      30.30S
FARGO          FAIR      33  31  92 S7        30.36S
WAHPETON ARPT  FAIR      32  30  93 SE6       30.38S
$$

 ***** WEATHER ACROSS CENTRAL AND WESTERN NORTH DAKOTA  *****

CITY           SKY/WX    TMP DP  RH WIND       PRES   REMARKS
BISMARCK       FAIR      36  34  92 SE3       30.27S
MINOT          MOCLDY    42  35  76 S7        30.20S
JAMESTOWN      MOCLDY    33  32  96 CALM      30.31S
MINOT AFB      CLOUDY    41  36  81 S9        30.19S
GARRISON         N/A     35  33  92 SW6       30.21F
WILLISTON      FAIR      40  36  86 S6        30.15R
DICKINSON      CLOUDY    40  37  89 S25G35    30.17S
HETTINGER      FAIR      37  34  89 S13       30.22F
$$

 *****  OTHER AIRPORT OBSERVATIONS IN OUR AREA  *****

CITY           SKY/WX    TMP DP  RH WIND       PRES   REMARKS
WALHALLA       FAIR      41  41 100 S5        30.29S
GRAFTON AIRPOR PTSUNNY   32  32 100 S10       30.35R WCI  24
VALLEY CITY AR CLOUDY    32  34 100 S7        30.35R FOG
CANDO          FAIR      30  30 100 SE7       30.30S WCI  23
CAVALIER APRT    N/A     36  36 100 S7        30.31S
GWINNER          N/A     36  36 100 S6        30.34S
SHEYENNE NWR     N/A     28  28 100 SE3       29.95S
ROLLA          CLOUDY    34  34 100 S7        30.25S
 ***** THE ABOVE OBSERVATIONS ARE NON NWS ARE NOT QUALITY
       CONTROLLED AND MAY MIS-REPORT RAIN FOR SNOW...
$$

  *****  WEATHER ACROSS NORTHERN MINNESOTA  *****

CITY           SKY/WX    TMP DP  RH WIND       PRES   REMARKS
FLAG ISLAND    FAIR      30  28  93 SE6       30.35S WCI  24
WARROAD        FAIR      30  28  93 S5        30.36S
ROSEAU         FAIR      34  28  80 S7        30.35R
HALLOCK        CLOUDY    34  34 100 S8        30.33R
THF RVR FALLS  FAIR      32  30  92 SE6       30.36S
BAUDETTE       FAIR      30  28  92 CALM      30.36S
WASKISH        FAIR      27  23  86 CALM      30.38S
CROOKSTON      FAIR      34  30  86 S7        30.37R
STEPHEN NDAWN    N/A     36  34  93 S12         N/A
GREENBUSH NDAW   N/A     34  32  93 S6          N/A
$$
  *****  WEATHER ACROSS CENTRAL AND WEST MINNESOTA  *****

CITY           SKY/WX    TMP DP  RH WIND       PRES   REMARKS
FOSSTON        FAIR      34  27  75 SE6       30.37S
BEMIDJI        FAIR      24  22  89 CALM      30.38R
PARK RAPIDS    FAIR      28  22  78 CALM      30.38R
ELBOW LAKE     FAIR      33  29  86 SE6       30.39S
WADENA         FAIR      27  27 100 CALM      30.39S FOG
DETROIT LAKES  FAIR      32  30  93 CALM      30.38S
MOORHEAD       FAIR      32  28  86 S8        30.38S WCI  25
FERGUS FALLS   FAIR      34  28  80 SE6       30.37S
MORRIS MN      FAIR      34  30  86 SE5       30.38S
STAPLES        FAIR      25  25 100 CALM      30.40S
$$
  *****  WEATHER ELSEWHERE ACROSS MINNESOTA  *****

CITY           SKY/WX    TMP DP  RH WIND       PRES   REMARKS
DULUTH         FAIR      35  19  52 NW6       30.38S
INTRNTL FALLS  FAIR      26  24  92 CALM      30.37R
ELY            FAIR      23  19  86 CALM      30.39R
CLOQUET        FAIR      27  19  74 CALM      30.40R
WHEATON        FAIR      32  30  93 SE7       30.40S FOG
BRAINERD       FAIR      26  22  84 CALM      30.41R
HIBBING        FAIR      23  20  88 CALM      30.38S
ALEXANDRIA     FAIR      34  27  75 CALM      30.39F
SAINT CLOUD    FAIR      28  26  92 CALM      30.41F
MINNEAPOLIS    MOCLDY    39  28  64 NE5       30.42S
$$

  *****  WEATHER ACROSS SOUTH DAKOTA  *****

CITY           SKY/WX    TMP DP  RH WIND       PRES   REMARKS
SIOUX FALLS    CLOUDY    38  30  73 NE9       30.34F
BROOKINGS      CLOUDY    37  33  85 SE6       30.36F
WATERTOWN      CLOUDY    35  32  88 S6        30.35S
HURON          LGT RAIN  40  34  79 S7        30.34R
SISSETON         N/A     35  33  92 SE3       30.35S
ABERDEEN       CLOUDY    39  36  89 CALM      30.35R
MITCHELL       MOCLDY    37  34  89 E8        30.34F
PIERRE         FAIR      39  39 100 E5        30.29F
MOBRIDGE       CLOUDY    42  38  85 SE10      30.28S
RAPID CITY     FAIR      37  36  96 S9        30.20F
$$

  *****  SOME WEATHER IN NEARBY STATES *****

CITY           SKY/WX    TMP DP  RH WIND       PRES   REMARKS
GLASGOW MT     FAIR      40  35  83 E12       30.04F
GREAT FALLS MT FAIR      39  26  59 SW13      30.01F
CHEYENNE WY    MIX PCPN  30  30 100 E5        30.13S FOG
SCOTTSBLUFF NE CLOUDY    35  32  88 NE6       30.20S
OMAHA NE       CLOUDY    49  27  42 SE6       30.30R
DES MOINES IA  CLOUDY    46  32  58 E7        30.36R
DAVENPORT IA   FAIR      44  24  45 E9        30.42R
CHICAGO IL     CLOUDY    42  22  44 CALM      30.43S
EAU CLAIRE WI  FAIR      32  25  75 N3        30.42R
LA CROSSE WI   FAIR      36  29  75 CALM      30.42S
$$

  *****  SOME NATIONAL WEATHER *****

CITY           SKY/WX    TMP DP  RH WIND       PRES   REMARKS
LA GUARDIA NY  FAIR      42  26  53 NW12      30.40R
RALEIGH NC     FAIR      39  32  76 NE3       30.42R
ATLANTA GA     FAIR      47  36  65 E7        30.31R
NEW ORLEANS LA FAIR      59  52  77 E5        30.10R
OKLAHOMA CITY  RAIN      49  47  93 NE10      30.06R FOG
ALBUQUERQUE NM FAIR      39  30  70 S5        30.10R
SALT LAKE CITY FAIR      46  36  68 SE7       30.15R
LOS ANGELES CA FAIR      54  53  97 W5        30.06S
BOISE ID       FAIR      46  33  60 SE8       30.12R
SEATTLE WA     MOCLDY    46  42  86 S13       30.22R
$$

*** WEATHER ACROSS MANITOBA...SASKATCHEWAN AND ONTARIO ***
                ***ONTARIO***

CITY           SKY/WX    TMP DP  RH WIND       PRES   REMARKS
GERALDTON      CLEAR     19  14  79 SW2       30.37R
THUNDER BAY    PTCLDY    25  21  86 W3        30.40R
SIOUX LOOKOUT  PTCLDY    27  19  74 S5        30.35R WCI  21
TORONTO        MOCLDY    34  21  60 VRB2      30.44R
BIG TROUT LK   CLEAR     28  19  69 S7        30.29F WCI  21
PICKLE LAKE    PTCLDY    34  14  44 SW5       30.31
DRYDEN         CLEAR     34  23  64 S7        30.35R
KENORA         PTCLDY    36  28  75 SW5       30.35R
$$
                *** MANITOBA***

CITY           SKY/WX    TMP DP  RH WIND       PRES   REMARKS
BRANDON        PTCLDY    30  30 100 E6        30.21F WCI  24
DAUPHIN        CLEAR     36  30  80 NE5       30.16S
ISLAND LAKE    PTCLDY    32  21  64 SE6       30.23F
PILOT MOUND      N/A     34  30  86 S9          N/A
THE PAS        CLOUDY    32  27  80 SE7       30.08S
THOMPSON       CLEAR     32  21  64 CALM      30.09F
WINNIPEG       CLEAR     36  32  87 S12       30.28F
LYNN LAKE      CLEAR     34  27  75 S3        30.00S
CHURCHILL      PTCLDY    39  27  60 SW16G23   30.02F
GILLAM         PTCLDY    34  19  55 S7        30.13F
$$
                ***SASKATCHEWAN***

CITY           SKY/WX    TMP DP  RH WIND       PRES   REMARKS
ESTEVAN        PTCLDY    37  36  93 S6        30.13S
KINDERSLEY     MOCLDY    37  32  81 SE9       29.92F
LLOYDMINSTER   MOCLDY    37  34  87 SE6       29.91F
PRINCE ALBERT  MOCLDY    30  28  93 E9        29.98F WCI  22
REGINA         PTCLDY    34  32  93 SE12      30.06F
YORKTON        PTCLDY    34  32  93 S9        30.09F
N. BATTLEFORD  CLEAR     30  28  93 E3        29.95F FOG
LA RONGE       PTCLDY    34  30  86 S3        29.99F
SASKATOON      PTCLDY    39  36  87 S8        29.96S
SWIFT CURRENT  CLEAR     41  30  65 S15       29.97F
$$
NOTE: THESE ARE AUTOMATED STATIONS WITH LIMITED QUALITY CONTROL
      "FAIR" INDICATES FEW OR NO CLOUDS BELOW 12,000 FEET WITH NO
      SIGNIFICANT WEATHER AND/OR OBSTRUCTIONS TO VISIBILITY.
      SKY/WX - SKY CONDITION AND SIGNIFICANT WEATHER.
      TMP - AIR TEMPERATURE.    DP   - DEWPOINT TEMPERATURE.
      RH  - RELATIVE HUMIDITY.  PRES - PRESSURE.
      HX  - HEAT INDEX.         WCI  - WIND CHILL INDEX.
$



USA.gov is the U.S. government's official web portal to all federal, state and local government web resources and services.